Big Lake, AK

7:34 AM AKDT on August 25, 2016 (GMT -0800)
Wasilla

Weather History for PAWS - November, 2012

Change the Weather History Date:

Saturday, November 24, 2012

  Actual Average Record
Temperature  
Mean Temperature 14 °F -  
Max Temperature 21 °F 27 °F 47 °F (1992)
Min Temperature 6 °F 13 °F -17 °F (1955)
Degree Days  
Heating Degree Days 52    
Moisture  
Dew Point 6 °F    
Average Humidity 67    
Maximum Humidity 92    
Minimum Humidity 42    
Precipitation  
Precipitation 0.00 in - - ()
Sea Level Pressure  
Sea Level Pressure 29.83 in    
Wind  
Wind Speed 4 mph (East)    
Max Wind Speed 16 mph    
Max Gust Speed 23 mph    
Visibility 10 miles    
Events      
Averages and records for this station are not official NWS values.
T = Trace of Precipitation, MM = Missing Value Source: NWS Daily Summary

Daily Weather History Graph

Daily Weather History Graph

Search for Another Location

Airport or City:

Trip Planner

Search our weather history database for the weather conditions in past years. The results will help you decide how hot, cold, wet, or windy it might be!

Date:

Astronomy

Nov. 24, 2012 Rise Set
Actual Time 9:32 AM AKST 3:57 PM AKST
Civil Twilight 8:35 AM AKST 4:53 PM AKST
Nautical Twilight 7:38 AM AKST 5:50 PM AKST
Astronomical Twilight 6:46 AM AKST 6:43 PM AKST
Moon 2:34 PM AKST (11/24) 5:05 AM AKST (11/24)
Length of Visible Light 8h 18m
Length of Day
6h 25m
Waxing Gibbous, 88% of the Moon is Illuminated
Nov 24
Waxing Gibbous
Nov 28
Full
Dec 6
Last Quarter
Dec 12
New
Dec 19
First Quarter

Hourly Weather History & Observations

Time (AKST) Temp. Windchill Dew Point Humidity Pressure Visibility Wind Dir Wind Speed Gust Speed Precip Events Conditions
12:16 AM 17.6 °F 12.3 °F 6.8 °F 63% 29.72 in 10.0 mi East 3.5 mph - N/A   Clear
12:36 AM 14.0 °F - 3.2 °F 62% 29.73 in 10.0 mi Calm Calm - N/A   Clear
12:56 AM 12.2 °F 6.1 °F 3.2 °F 67% 29.73 in 10.0 mi NE 3.5 mph - N/A   Clear
1:16 AM 10.4 °F - 3.2 °F 73% 29.74 in 10.0 mi Calm Calm - N/A   Clear
1:36 AM 10.4 °F - 3.2 °F 73% 29.73 in 10.0 mi Calm Calm - N/A   Clear
1:56 AM 10.4 °F - 3.2 °F 73% 29.74 in 10.0 mi Calm Calm - N/A   Clear
2:16 AM 8.6 °F 2.0 °F 1.4 °F 73% 29.74 in 10.0 mi SSW 3.5 mph - N/A   Clear
2:36 AM 10.4 °F - 3.2 °F 73% 29.74 in 10.0 mi Calm Calm - N/A   Clear
2:56 AM 10.4 °F 4.0 °F 6.8 °F 85% 29.74 in 10.0 mi East 3.5 mph - N/A   Clear
3:16 AM 8.6 °F - 6.8 °F 92% 29.74 in 10.0 mi Calm Calm - N/A   Clear
3:36 AM 10.4 °F 4.0 °F 6.8 °F 85% 29.74 in 10.0 mi South 3.5 mph - N/A   Clear
3:56 AM 10.4 °F - 6.8 °F 85% 29.74 in 10.0 mi Calm Calm - N/A   Clear
4:16 AM 8.6 °F 2.0 °F 3.2 °F 79% 29.75 in 10.0 mi SE 3.5 mph - N/A   Clear
4:36 AM 10.4 °F - 6.8 °F 85% 29.75 in 10.0 mi Calm Calm - N/A   Clear
4:56 AM 12.2 °F 1.7 °F 6.8 °F 79% 29.75 in 10.0 mi ENE 6.9 mph - N/A   Clear
5:16 AM 15.8 °F 6.1 °F 5.0 °F 62% 29.75 in 10.0 mi East 6.9 mph - N/A   Clear
5:36 AM 15.8 °F 7.2 °F 6.8 °F 68% 29.75 in 10.0 mi East 5.8 mph - N/A   Clear
5:56 AM 15.8 °F 8.6 °F 8.6 °F 73% 29.75 in 10.0 mi East 4.6 mph - N/A   Clear
6:16 AM 15.8 °F 10.2 °F 8.6 °F 73% 29.75 in 10.0 mi East 3.5 mph - N/A   Clear
6:36 AM 14.0 °F 8.2 °F 6.8 °F 73% 29.75 in 10.0 mi East 3.5 mph - N/A   Clear
6:56 AM 10.4 °F - 3.2 °F 73% 29.76 in 10.0 mi Calm Calm - N/A   Clear
7:16 AM 12.2 °F 6.1 °F 10.4 °F 92% 29.76 in 10.0 mi East 3.5 mph - N/A   Clear
7:36 AM 10.4 °F - 8.6 °F 92% 29.76 in 10.0 mi Calm Calm - N/A   Clear
7:56 AM 12.2 °F 6.1 °F 10.4 °F 92% 29.76 in 10.0 mi East 3.5 mph - N/A   Clear
8:16 AM 15.8 °F 7.2 °F 8.6 °F 73% 29.77 in 10.0 mi East 5.8 mph - N/A   Clear
8:36 AM 12.2 °F 6.1 °F 6.8 °F 79% 29.78 in 10.0 mi SE 3.5 mph - N/A   Clear
8:56 AM 12.2 °F - 8.6 °F 85% 29.79 in 10.0 mi Calm Calm - N/A   Clear
9:16 AM 10.4 °F - 8.6 °F 92% 29.79 in 10.0 mi Calm Calm - N/A   Clear
9:36 AM 8.6 °F - 6.8 °F 92% 29.79 in 10.0 mi Calm Calm - N/A   Clear
9:56 AM 6.8 °F -0.1 °F 3.2 °F 85% 29.80 in 10.0 mi East 3.5 mph - N/A   Clear
10:16 AM 8.6 °F - 5.0 °F 85% 29.80 in 10.0 mi Calm Calm - N/A   Clear
10:36 AM 8.6 °F - 5.0 °F 85% 29.81 in 10.0 mi Calm Calm - N/A   Clear
10:56 AM 10.4 °F 4.0 °F 8.6 °F 92% 29.81 in 10.0 mi WSW 3.5 mph - N/A   Clear
11:16 AM 10.4 °F 4.0 °F 3.2 °F 73% 29.82 in 10.0 mi WSW 3.5 mph - N/A   Clear
11:36 AM 12.2 °F - 5.0 °F 73% 29.82 in 10.0 mi Calm Calm - N/A   Clear
11:56 AM 15.8 °F 10.2 °F 10.4 °F 79% 29.82 in 10.0 mi East 3.5 mph - N/A   Clear
12:16 PM 15.8 °F - 10.4 °F 79% 29.82 in 10.0 mi Calm Calm - N/A   Clear
12:36 PM 15.8 °F - 12.2 °F 86% 29.83 in 10.0 mi Calm Calm - N/A   Clear
12:56 PM 17.6 °F - 10.4 °F 73% 29.83 in 10.0 mi Calm Calm - N/A   Clear
1:16 PM 17.6 °F - 10.4 °F 73% 29.84 in 10.0 mi Calm Calm - N/A   Clear
1:36 PM 17.6 °F - 10.4 °F 73% 29.84 in 10.0 mi Calm Calm - N/A   Clear
1:56 PM 17.6 °F 12.3 °F 10.4 °F 73% 29.85 in 10.0 mi SE 3.5 mph - N/A   Clear
2:16 PM 17.6 °F 12.3 °F 10.4 °F 73% 29.85 in 10.0 mi ESE 3.5 mph - N/A   Clear
2:36 PM 17.6 °F 12.3 °F 8.6 °F 68% 29.85 in 10.0 mi ESE 3.5 mph - N/A   Clear
2:56 PM 15.8 °F 10.2 °F 8.6 °F 73% 29.85 in 10.0 mi SSE 3.5 mph - N/A   Clear
3:16 PM 15.8 °F - 10.4 °F 79% 29.85 in 10.0 mi Calm Calm - N/A   Clear
3:36 PM 15.8 °F 10.2 °F 10.4 °F 79% 29.86 in 10.0 mi SE 3.5 mph - N/A   Clear
3:56 PM 15.8 °F 7.2 °F 8.6 °F 73% 29.86 in 10.0 mi East 5.8 mph - N/A   Clear
4:16 PM 19.4 °F 9.5 °F 6.8 °F 58% 29.86 in 10.0 mi ENE 8.1 mph 17.3 mph N/A   Clear
4:36 PM 19.4 °F 9.5 °F 6.8 °F 58% 29.87 in 10.0 mi ENE 8.1 mph - N/A   Clear
4:56 PM 19.4 °F 10.4 °F 5.0 °F 54% 29.87 in 10.0 mi ENE 6.9 mph - N/A   Clear
5:16 PM 19.4 °F 8.6 °F 5.0 °F 54% 29.88 in 10.0 mi ENE 9.2 mph - N/A   Clear
5:36 PM 21.2 °F 8.9 °F 3.2 °F 46% 29.88 in 10.0 mi ENE 12.7 mph 17.3 mph N/A   Clear
5:56 PM 21.2 °F 10.9 °F 3.2 °F 46% 29.89 in 10.0 mi ENE 9.2 mph 18.4 mph N/A   Clear
6:16 PM 21.2 °F 8.3 °F 1.4 °F 42% 29.90 in 10.0 mi ENE 13.8 mph 19.6 mph N/A   Clear
6:36 PM 19.4 °F 10.4 °F 3.2 °F 49% 29.90 in 10.0 mi East 6.9 mph - N/A   Clear
6:56 PM 19.4 °F 5.0 °F 3.2 °F 49% 29.90 in 10.0 mi ENE 16.1 mph 19.6 mph N/A   Clear
7:16 PM 21.2 °F 8.3 °F 1.4 °F 42% 29.90 in 10.0 mi ENE 13.8 mph 19.6 mph N/A   Clear
7:36 PM 21.2 °F 12.6 °F 1.4 °F 42% 29.91 in 10.0 mi East 6.9 mph - N/A   Clear
7:56 PM 21.2 °F 9.5 °F 1.4 °F 42% 29.91 in 10.0 mi ENE 11.5 mph - N/A   Clear
8:16 PM 21.2 °F 9.5 °F 1.4 °F 42% 29.92 in 10.0 mi ENE 11.5 mph 19.6 mph N/A   Clear
8:36 PM 21.2 °F 10.1 °F 1.4 °F 42% 29.93 in 10.0 mi ENE 10.4 mph - N/A   Clear
8:56 PM 21.2 °F 10.1 °F 1.4 °F 42% 29.94 in 10.0 mi NE 10.4 mph 16.1 mph N/A   Clear
9:16 PM 21.2 °F 10.9 °F 1.4 °F 42% 29.94 in 10.0 mi NE 9.2 mph - N/A   Clear
9:36 PM 21.2 °F 10.1 °F 1.4 °F 42% 29.95 in 10.0 mi NE 10.4 mph - N/A   Clear
9:56 PM 21.2 °F 9.5 °F 1.4 °F 42% 29.96 in 10.0 mi ENE 11.5 mph - N/A   Clear
10:16 PM 21.2 °F 7.3 °F 1.4 °F 42% 29.97 in 10.0 mi NE 16.1 mph 20.7 mph N/A   Clear
10:36 PM 21.2 °F 7.8 °F 1.4 °F 42% 29.97 in 10.0 mi ENE 15.0 mph 20.7 mph N/A   Clear
10:56 PM 21.2 °F 7.8 °F 1.4 °F 42% 29.98 in 10.0 mi ENE 15.0 mph 23.0 mph N/A   Clear
11:16 PM 21.2 °F 8.9 °F 1.4 °F 42% 29.98 in 10.0 mi ENE 12.7 mph 17.3 mph N/A   Clear
11:36 PM 21.2 °F 9.5 °F 1.4 °F 42% 29.99 in 10.0 mi ENE 11.5 mph - N/A   Clear
11:56 PM 21.2 °F 10.1 °F 1.4 °F 42% 29.99 in 10.0 mi ENE 10.4 mph 18.4 mph N/A   Clear